Darstellungsparameter: Aktuell verwendete Einstellungen:
Skalierung der Graphiken ... ?
xyx+y,   Skalierungsfaktor:      Skalierung: Modus: x, Faktor: 1
Darstellungszeitraum ... ?
Vom - - bis: - -   Zeitraum: 20.04.2009 - 22.04.2009
Min/Max/Avg-Anzeige ... ?
Zeige MMA aktuell
Zeige MMA Monat
Zeige MMA alles
Zeige --A aktuell
Zeige --A Monat
Zeige --A alles
Keine MMA-Anzeige
MMA:
Average (ber die Originaldaten)
MMA-Basis: 20.04.2009 - 22.04.2009
Quicknavigation für Darstellung... ?
Tage:      1T, 2T, 3T, 5T -1T -2T -3T -5T +1T +2T +3T +5T
Wochen: 1W, 2W, 3W -1W -2W -3W +1W +2W +3W
Monate: 1M, 3M, 6M -1M -3M -6M +1M +3M +6M
Jahre:    1J, 3J, 5J, 10J -1J -3J -5J -10J +1J +3J +5J +10J
Nutze für die Darstellung ... ?
Originaldaten oder Mittelwerte auf ...
Stundenbasis Tagesbasis Wochenbasis
Monatsbasis Jahresbasis      Datenbasis: Original-Daten
Darstellen als:
Statistik (Auto) Statistik J:M      Darstellung:
Zur Graphik,    zurück zur Übersicht aller Sensoren.
 
Tabellarische Datenbersicht: ?
 
Sensor: Nr:Datum:Temp:Abs-Feuchte:Windchill:Wind:
Aussen-T/F 1 20-04-2009 00:05:00 12.4 C 7.21 g/m*3 12.4 C 0 km/h
2 20-04-2009 00:17:00 12.2 C 7.23 g/m*3 12.2 C 0 km/h
3 20-04-2009 00:29:00 12.1 C 7.29 g/m*3 12.1 C 0 km/h
4 20-04-2009 00:41:00 11.8 C 7.37 g/m*3 11.8 C 0 km/h
5 20-04-2009 00:53:00 11.7 C 7.43 g/m*3 11.7 C 0 km/h
6 20-04-2009 01:05:00 11.6 C 7.38 g/m*3 11.6 C 0 km/h
7 20-04-2009 01:17:00 11.3 C 7.34 g/m*3 11.3 C 0 km/h
8 20-04-2009 01:28:00 11.1 C 7.35 g/m*3 11.1 C 0 km/h
9 20-04-2009 01:40:00 11 C 7.31 g/m*3 11 C 0 km/h
10 20-04-2009 01:52:00 10.9 C 7.36 g/m*3 10.9 C 0 km/h
11 20-04-2009 02:04:00 10.7 C 7.27 g/m*3 10.7 C 0 km/h
12 20-04-2009 02:16:00 10.4 C 7.13 g/m*3 10.4 C 0 km/h
13 20-04-2009 02:28:00 10.2 C 7.14 g/m*3 10.2 C 0 km/h
14 20-04-2009 02:40:00 10.1 C 7.19 g/m*3 10.1 C 0 km/h
15 20-04-2009 02:52:00 9.9 C 7.28 g/m*3 9.9 C 0 km/h
16 20-04-2009 03:04:00 9.7 C 7.28 g/m*3 9.7 C 0 km/h
17 20-04-2009 03:16:01 9.4 C 7.24 g/m*3 9.4 C 0 km/h
18 20-04-2009 03:28:01 9.3 C 7.28 g/m*3 9.3 C 0 km/h
19 20-04-2009 03:40:01 9.1 C 7.19 g/m*3 9.1 C 0 km/h
20 20-04-2009 03:52:01 9 C 7.14 g/m*3 9 C 0 km/h
21 20-04-2009 04:04:01 8.9 C 7.27 g/m*3 8.9 C 0 km/h
22 20-04-2009 04:16:01 8.7 C 7.18 g/m*3 8.7 C 0 km/h
23 20-04-2009 04:28:01 8.6 C 7.13 g/m*3 8.6 C 0 km/h
24 20-04-2009 04:40:01 8.4 C 7.04 g/m*3 8.4 C 0 km/h
25 20-04-2009 04:52:01 8.3 C 7.08 g/m*3 8.3 C 0 km/h
Sensor: Nr:Datum:Temp:Abs-Feuchte:Windchill:Wind:
Aussen-T/F 26 20-04-2009 05:04:01 8.1 C 6.99 g/m*3 8.1 C 0 km/h
27 20-04-2009 05:16:01 8 C 6.94 g/m*3 8 C 0 km/h
28 20-04-2009 05:28:01 7.8 C 7.02 g/m*3 7.8 C 0 km/h
29 20-04-2009 05:40:01 7.6 C 6.93 g/m*3 7.6 C 0 km/h
30 20-04-2009 05:52:01 7.5 C 6.96 g/m*3 7.5 C 0 km/h
31 20-04-2009 06:04:01 7.3 C 6.79 g/m*3 7.3 C 0 km/h
32 20-04-2009 06:16:01 7.3 C 6.87 g/m*3 7.3 C 0 km/h
33 20-04-2009 06:28:01 7.1 C 6.79 g/m*3 7.1 C 0 km/h
34 20-04-2009 06:40:01 7 C 6.74 g/m*3 7 C 0 km/h
35 20-04-2009 06:52:58 6.8 C 6.81 g/m*3 6.8 C 0 km/h
36 20-04-2009 07:04:58 6.8 C 6.81 g/m*3 6.8 C 0 km/h
37 20-04-2009 07:16:59 6.9 C 6.85 g/m*3 6.9 C 0 km/h
38 20-04-2009 07:28:59 7 C 6.9 g/m*3 7 C 0 km/h
39 20-04-2009 07:40:02 7.2 C 7.06 g/m*3 7.2 C 0 km/h
40 20-04-2009 07:52:01 7.1 C 7.02 g/m*3 7.1 C 0 km/h
41 20-04-2009 08:04:02 7.2 C 6.99 g/m*3 7.2 C 0 km/h
42 20-04-2009 08:16:01 7.3 C 7.03 g/m*3 7.3 C 0 km/h
43 20-04-2009 08:28:01 7.4 C 7.08 g/m*3 7.4 C 0 km/h
44 20-04-2009 08:40:01 7.7 C 7.22 g/m*3 7.7 C 0 km/h
45 20-04-2009 08:52:02 8 C 7.28 g/m*3 8 C 0 km/h
46 20-04-2009 09:04:01 7.9 C 7.31 g/m*3 7.9 C 0 km/h
47 20-04-2009 09:16:00 8.2 C 7.45 g/m*3 8.2 C 0 km/h
48 20-04-2009 09:28:00 8.4 C 7.55 g/m*3 8.4 C 0 km/h
49 20-04-2009 09:40:01 8.9 C 7.8 g/m*3 8.9 C 0 km/h
50 20-04-2009 09:52:00 9.6 C 8.06 g/m*3 9.6 C 0 km/h
Sensor: Nr:Datum:Temp:Abs-Feuchte:Windchill:Wind:
Aussen-T/F 51 20-04-2009 10:04:00 10.4 C 8.29 g/m*3 10.4 C 0 km/h
52 20-04-2009 10:16:00 11.1 C 8.26 g/m*3 11.1 C 0 km/h
53 20-04-2009 10:28:00 12.1 C 8.47 g/m*3 12.1 C 0 km/h
54 20-04-2009 10:40:00 13 C 8.28 g/m*3 13 C 0 km/h
55 20-04-2009 10:52:59 13.5 C 7.72 g/m*3 13.5 C 0 km/h
56 20-04-2009 11:04:00 14.1 C 7.77 g/m*3 14.1 C 0 km/h
57 20-04-2009 11:16:00 14.9 C 7.77 g/m*3 14.9 C 0 km/h
58 20-04-2009 11:28:00 15.7 C 7.76 g/m*3 15.7 C 0 km/h
59 20-04-2009 11:40:59 16.2 C 7.72 g/m*3 16.2 C 0 km/h
60 20-04-2009 11:52:59 16.8 C 7.43 g/m*3 16.8 C 0 km/h
61 20-04-2009 12:04:59 17.2 C 7.18 g/m*3 17.2 C 0 km/h
62 20-04-2009 12:16:59 17.6 C 6.9 g/m*3 17.6 C 0 km/h
63 20-04-2009 12:28:59 18.3 C 6.72 g/m*3 18.3 C 0 km/h
64 20-04-2009 12:40:58 18.7 C 6.88 g/m*3 18.7 C 0 km/h
65 20-04-2009 12:52:59 18.9 C 6.64 g/m*3 18.9 C 0 km/h
66 20-04-2009 13:04:58 19.2 C 6.1 g/m*3 19.2 C 0 km/h
67 20-04-2009 13:16:58 20 C 6.39 g/m*3 20 C 0 km/h
68 20-04-2009 13:28:58 20.9 C 6.37 g/m*3 20.9 C 0 km/h
69 20-04-2009 13:40:58 21.2 C 5.56 g/m*3 21.2 C 0 km/h
70 20-04-2009 13:52:58 21.4 C 5.44 g/m*3 21.4 C 0 km/h
71 20-04-2009 14:04:57 21.5 C 5.28 g/m*3 21.5 C 0 km/h
72 20-04-2009 14:16:58 21.4 C 5.25 g/m*3 21.4 C 0 km/h
73 20-04-2009 14:28:58 22 C 5.05 g/m*3 22 C 0 km/h
74 20-04-2009 14:40:58 23.1 C 5.17 g/m*3 23.1 C 0 km/h
75 20-04-2009 14:52:57 22.7 C 4.65 g/m*3 22.7 C 0 km/h
Sensor: Nr:Datum:Temp:Abs-Feuchte:Windchill:Wind:
Aussen-T/F 76 20-04-2009 15:04:58 23.7 C 4.49 g/m*3 23.7 C 0 km/h
77 20-04-2009 15:16:57 23.8 C 4.3 g/m*3 23.8 C 0 km/h
78 20-04-2009 15:28:57 23.7 C 4.28 g/m*3 23.7 C 0 km/h
79 20-04-2009 15:40:57 23.8 C 4.3 g/m*3 23.8 C 0 km/h
80 20-04-2009 15:52:56 24.1 C 4.38 g/m*3 24.1 C 0 km/h
81 20-04-2009 16:04:57 24.1 C 4.38 g/m*3 24.1 C 0 km/h
82 20-04-2009 16:16:56 24.3 C 4.43 g/m*3 24.3 C 0 km/h
83 20-04-2009 16:28:56 25.2 C 4.66 g/m*3 25.2 C 0 km/h
84 20-04-2009 16:40:56 25.7 C 4.79 g/m*3 25.7 C 0 km/h
85 20-04-2009 16:52:56 26 C 4.87 g/m*3 26 C 0 km/h
86 20-04-2009 17:04:56 26 C 4.87 g/m*3 26 C 0 km/h
87 20-04-2009 17:16:56 27 C 5.15 g/m*3 27 C 0 km/h
88 20-04-2009 17:28:56 26 C 4.87 g/m*3 26 C 0 km/h
89 20-04-2009 17:40:56 25.6 C 4.76 g/m*3 25.6 C 0 km/h
90 20-04-2009 17:52:56 27.1 C 5.18 g/m*3 27.1 C 0 km/h
91 20-04-2009 18:04:55 25.9 C 4.84 g/m*3 25.9 C 0 km/h
92 20-04-2009 18:16:55 25.7 C 4.79 g/m*3 25.7 C 0 km/h
93 20-04-2009 18:28:55 25.3 C 4.68 g/m*3 25.3 C 0 km/h
94 20-04-2009 18:40:55 23.9 C 5.19 g/m*3 23.9 C 0 km/h
95 20-04-2009 18:52:55 22.8 C 5.49 g/m*3 22.8 C 0 km/h
96 20-04-2009 19:04:54 22.4 C 5.16 g/m*3 22.4 C 0 km/h
97 20-04-2009 19:16:55 21.5 C 5.47 g/m*3 21.5 C 0 km/h
98 20-04-2009 19:28:55 21.2 C 5.37 g/m*3 21.2 C 0 km/h
99 20-04-2009 19:40:55 21.2 C 5.56 g/m*3 21.2 C 0 km/h
100 20-04-2009 19:52:54 20.9 C 5.83 g/m*3 20.9 C 0 km/h
Sensor: Nr:Datum:Temp:Abs-Feuchte:Windchill:Wind:
Aussen-T/F 101 20-04-2009 20:04:55 20.4 C 5.66 g/m*3 20.4 C 0 km/h
102 20-04-2009 20:16:54 19.7 C 5.77 g/m*3 19.7 C 0 km/h
103 20-04-2009 20:28:54 19 C 5.87 g/m*3 19 C 0 km/h
104 20-04-2009 20:40:54 18.5 C 6.33 g/m*3 18.5 C 0 km/h
105 20-04-2009 20:52:54 18.1 C 5.87 g/m*3 18.1 C 0 km/h
106 20-04-2009 21:04:53 17.6 C 5.7 g/m*3 17.6 C 0 km/h
107 20-04-2009 21:16:54 17 C 5.5 g/m*3 17 C 0 km/h
108 20-04-2009 21:28:54 16.7 C 5.68 g/m*3 16.7 C 0 km/h
109 20-04-2009 21:40:54 16.3 C 5.69 g/m*3 16.3 C 0 km/h
110 20-04-2009 21:52:53 16.1 C 5.89 g/m*3 16.1 C 0 km/h
111 20-04-2009 22:04:54 15.9 C 5.69 g/m*3 15.9 C 0 km/h
112 20-04-2009 22:16:53 15.5 C 5.68 g/m*3 15.5 C 0 km/h
113 20-04-2009 22:28:53 15.2 C 5.58 g/m*3 15.2 C 0 km/h
114 20-04-2009 22:41:55 14.8 C 5.7 g/m*3 14.8 C 0 km/h
115 20-04-2009 22:53:55 14.6 C 5.76 g/m*3 14.6 C 0 km/h
116 20-04-2009 23:05:55 14.2 C 5.74 g/m*3 14.2 C 0 km/h
117 20-04-2009 23:17:55 14 C 5.79 g/m*3 14 C 0 km/h
118 20-04-2009 23:29:55 13.7 C 5.8 g/m*3 13.7 C 0 km/h
119 20-04-2009 23:41:55 13.7 C 5.92 g/m*3 13.7 C 0 km/h
120 20-04-2009 23:53:55 13.6 C 5.77 g/m*3 13.6 C 0 km/h
121 21-04-2009 00:05:55 13.2 C 5.63 g/m*3 13.2 C 0 km/h
122 21-04-2009 00:17:55 13.2 C 5.74 g/m*3 13.2 C 0 km/h
123 21-04-2009 00:29:55 12.9 C 5.75 g/m*3 12.9 C 0 km/h
124 21-04-2009 00:41:55 12.8 C 5.71 g/m*3 12.8 C 0 km/h
125 21-04-2009 00:53:55 12.5 C 5.72 g/m*3 12.5 C 0 km/h
Sensor: Nr:Datum:Temp:Abs-Feuchte:Windchill:Wind:
Aussen-T/F 126 21-04-2009 01:05:55 12.3 C 5.75 g/m*3 12.3 C 0 km/h
127 21-04-2009 01:17:55 11.9 C 5.93 g/m*3 11.9 C 0 km/h
128 21-04-2009 01:29:55 11.5 C 5.99 g/m*3 11.5 C 0 km/h
129 21-04-2009 01:41:55 11.4 C 5.95 g/m*3 11.4 C 0 km/h
130 21-04-2009 01:53:55 11.1 C 6.04 g/m*3 11.1 C 0 km/h
131 21-04-2009 02:05:55 10.7 C 5.99 g/m*3 10.7 C 0 km/h
132 21-04-2009 02:17:56 10.6 C 5.86 g/m*3 10.6 C 0 km/h
133 21-04-2009 02:29:56 10.5 C 5.92 g/m*3 10.5 C 0 km/h
134 21-04-2009 02:41:56 10.2 C 6 g/m*3 10.2 C 0 km/h
135 21-04-2009 02:53:56 10 C 6.01 g/m*3 10 C 0 km/h
136 21-04-2009 03:05:56 9.8 C 6.03 g/m*3 9.8 C 0 km/h
137 21-04-2009 03:17:56 9.6 C 6.05 g/m*3 9.6 C 0 km/h
138 21-04-2009 03:29:56 9.3 C 5.93 g/m*3 9.3 C 0 km/h
139 21-04-2009 03:41:56 9.2 C 5.98 g/m*3 9.2 C 0 km/h
140 21-04-2009 03:53:56 9 C 5.99 g/m*3 9 C 0 km/h
141 21-04-2009 04:05:56 8.8 C 6.01 g/m*3 8.8 C 0 km/h
142 21-04-2009 04:17:56 8.7 C 6.05 g/m*3 8.7 C 0 km/h
143 21-04-2009 04:29:56 8.5 C 6.15 g/m*3 8.5 C 0 km/h
144 21-04-2009 04:41:56 8.2 C 6.2 g/m*3 8.2 C 0 km/h
145 21-04-2009 04:53:56 8.1 C 6.16 g/m*3 8.1 C 0 km/h
146 21-04-2009 05:05:56 7.9 C 6.16 g/m*3 7.9 C 0 km/h
147 21-04-2009 05:17:56 7.9 C 6.24 g/m*3 7.9 C 0 km/h
148 21-04-2009 05:29:56 7.7 C 6.16 g/m*3 7.7 C 0 km/h
149 21-04-2009 05:41:56 7.6 C 6.28 g/m*3 7.6 C 0 km/h
150 21-04-2009 05:53:56 7.5 C 6.24 g/m*3 7.5 C 0 km/h
Sensor: Nr:Datum:Temp:Abs-Feuchte:Windchill:Wind:
Aussen-T/F 151 21-04-2009 06:05:57 7.4 C 6.28 g/m*3 7.4 C 0 km/h
152 21-04-2009 06:17:57 7.2 C 6.2 g/m*3 7.2 C 0 km/h
153 21-04-2009 06:29:57 7.1 C 6.24 g/m*3 7.1 C 0 km/h
154 21-04-2009 06:41:57 7.1 C 6.24 g/m*3 7.1 C 0 km/h
155 21-04-2009 06:53:55 7.1 C 6.32 g/m*3 7.1 C 0 km/h
156 21-04-2009 07:05:55 7.1 C 6.32 g/m*3 7.1 C 0 km/h
157 21-04-2009 07:17:54 7.1 C 6.32 g/m*3 7.1 C 0 km/h
158 21-04-2009 07:29:54 7.1 C 6.4 g/m*3 7.1 C 0 km/h
159 21-04-2009 07:41:54 7.3 C 6.48 g/m*3 7.3 C 0 km/h
160 21-04-2009 07:53:54 7.4 C 6.52 g/m*3 7.4 C 0 km/h
161 21-04-2009 08:05:54 7.5 C 6.64 g/m*3 7.5 C 0 km/h
162 21-04-2009 08:17:54 7.8 C 6.69 g/m*3 7.8 C 0 km/h
163 21-04-2009 08:29:54 8 C 6.7 g/m*3 8 C 0 km/h
164 21-04-2009 08:41:54 8.2 C 6.78 g/m*3 8.2 C 0 km/h
165 21-04-2009 08:53:53 8.5 C 6.83 g/m*3 8.5 C 0 km/h
166 21-04-2009 09:05:53 8.9 C 6.92 g/m*3 8.9 C 0 km/h
167 21-04-2009 09:17:54 9.4 C 7.15 g/m*3 9.4 C 0 km/h
168 21-04-2009 09:29:54 10.2 C 7.23 g/m*3 10.2 C 0 km/h
169 21-04-2009 09:41:53 10.8 C 7.31 g/m*3 10.8 C 0 km/h
170 21-04-2009 09:53:53 11.5 C 7.33 g/m*3 11.5 C 0 km/h
171 21-04-2009 10:05:53 12.2 C 7.01 g/m*3 12.2 C 0 km/h
172 21-04-2009 10:17:53 12.7 C 7.01 g/m*3 12.7 C 0 km/h
173 21-04-2009 10:29:53 13.4 C 7.09 g/m*3 13.4 C 0 km/h
174 21-04-2009 10:41:52 14 C 7 g/m*3 14 C 0 km/h
175 21-04-2009 10:53:53 14.7 C 7.05 g/m*3 14.7 C 0 km/h
Sensor: Nr:Datum:Temp:Abs-Feuchte:Windchill:Wind:
Aussen-T/F 176 21-04-2009 11:05:52 15.3 C 6.66 g/m*3 15.3 C 0 km/h
177 21-04-2009 11:17:52 15.9 C 6.09 g/m*3 15.9 C 0 km/h
178 21-04-2009 11:29:52 16.4 C 6.14 g/m*3 16.4 C 0 km/h
179 21-04-2009 11:41:52 16.8 C 6 g/m*3 16.8 C 0 km/h
180 21-04-2009 11:53:52 16.9 C 5.32 g/m*3 16.9 C 0 km/h
181 21-04-2009 12:05:52 17.2 C 5.42 g/m*3 17.2 C 0 km/h
182 21-04-2009 12:17:52 17.8 C 5.46 g/m*3 17.8 C 0 km/h
183 21-04-2009 12:29:52 18.7 C 5.6 g/m*3 18.7 C 0 km/h
184 21-04-2009 12:41:52 19.2 C 5.28 g/m*3 19.2 C 0 km/h
185 21-04-2009 12:53:52 19.7 C 5.6 g/m*3 19.7 C 0 km/h
186 21-04-2009 13:05:51 20 C 5.53 g/m*3 20 C 0 km/h
187 21-04-2009 13:17:51 21 C 5.5 g/m*3 21 C 0 km/h
188 21-04-2009 13:29:51 20.6 C 5.19 g/m*3 20.6 C 0 km/h
189 21-04-2009 13:41:50 21.3 C 4.85 g/m*3 21.3 C 0 km/h
190 21-04-2009 13:53:51 21.3 C 4.85 g/m*3 21.3 C 0 km/h
191 21-04-2009 14:05:50 21.6 C 5.12 g/m*3 21.6 C 0 km/h
192 21-04-2009 14:17:50 22.3 C 4.54 g/m*3 22.3 C 0 km/h
193 21-04-2009 14:29:50 22.2 C 4.71 g/m*3 22.2 C 0 km/h
194 21-04-2009 14:41:51 23.1 C 4.55 g/m*3 23.1 C 0 km/h
195 21-04-2009 14:53:50 23.7 C 4.49 g/m*3 23.7 C 0 km/h
196 21-04-2009 15:05:50 24.6 C 4.5 g/m*3 24.6 C 0 km/h
197 21-04-2009 15:17:50 24 C 4.35 g/m*3 24 C 0 km/h
198 21-04-2009 15:29:50 23.6 C 4.25 g/m*3 23.6 C 0 km/h
199 21-04-2009 15:41:50 24.4 C 4.45 g/m*3 24.4 C 0 km/h
200 21-04-2009 15:53:49 24.6 C 4.5 g/m*3 24.6 C 0 km/h
Sensor: Nr:Datum:Temp:Abs-Feuchte:Windchill:Wind:
Aussen-T/F 201 21-04-2009 16:05:50 25.7 C 4.79 g/m*3 25.7 C 0 km/h
202 21-04-2009 16:17:49 25.9 C 4.84 g/m*3 25.9 C 0 km/h
203 21-04-2009 16:29:49 26.2 C 4.92 g/m*3 26.2 C 0 km/h
204 21-04-2009 16:41:49 25.5 C 4.73 g/m*3 25.5 C 0 km/h
205 21-04-2009 16:53:49 25.2 C 4.66 g/m*3 25.2 C 0 km/h
206 21-04-2009 17:05:49 25.5 C 4.73 g/m*3 25.5 C 0 km/h
207 21-04-2009 17:17:49 25.6 C 4.76 g/m*3 25.6 C 0 km/h
208 21-04-2009 17:29:49 26 C 4.87 g/m*3 26 C 0 km/h
209 21-04-2009 17:41:48 26.1 C 4.9 g/m*3 26.1 C 0 km/h
210 21-04-2009 17:53:49 25.4 C 4.71 g/m*3 25.4 C 0 km/h
211 21-04-2009 18:05:48 24.4 C 4.45 g/m*3 24.4 C 0 km/h
212 21-04-2009 18:17:48 25 C 4.6 g/m*3 25 C 0 km/h
213 21-04-2009 18:29:48 24.7 C 4.53 g/m*3 24.7 C 0 km/h
214 21-04-2009 18:41:48 24.4 C 4.45 g/m*3 24.4 C 0 km/h
215 21-04-2009 18:53:48 24.2 C 4.4 g/m*3 24.2 C 0 km/h
216 21-04-2009 19:05:47 23.7 C 4.28 g/m*3 23.7 C 0 km/h
217 21-04-2009 19:17:48 24 C 4.35 g/m*3 24 C 0 km/h
218 21-04-2009 19:29:48 23.4 C 4.21 g/m*3 23.4 C 0 km/h
219 21-04-2009 19:41:48 23 C 4.11 g/m*3 23 C 0 km/h
220 21-04-2009 19:53:47 22 C 4.08 g/m*3 22 C 0 km/h
221 21-04-2009 20:05:48 21.7 C 4.2 g/m*3 21.7 C 0 km/h
222 21-04-2009 20:17:47 20.4 C 4.42 g/m*3 20.4 C 0 km/h
223 21-04-2009 20:29:47 19.8 C 4.44 g/m*3 19.8 C 0 km/h
224 21-04-2009 20:41:47 19.2 C 4.12 g/m*3 19.2 C 0 km/h
225 21-04-2009 20:53:46 18.7 C 4.64 g/m*3 18.7 C 0 km/h
Sensor: Nr:Datum:Temp:Abs-Feuchte:Windchill:Wind:
Aussen-T/F 226 21-04-2009 21:05:46 18.4 C 4.72 g/m*3 18.4 C 0 km/h
227 21-04-2009 21:17:47 17.9 C 4.73 g/m*3 17.9 C 0 km/h
228 21-04-2009 21:29:48 17.8 C 4.86 g/m*3 17.8 C 0 km/h
229 21-04-2009 21:41:46 17.5 C 5.22 g/m*3 17.5 C 0 km/h
230 21-04-2009 21:53:46 17.3 C 5.3 g/m*3 17.3 C 0 km/h
231 21-04-2009 22:05:45 17.1 C 5.39 g/m*3 17.1 C 0 km/h
232 21-04-2009 22:17:46 16.9 C 5.61 g/m*3 16.9 C 0 km/h
233 21-04-2009 22:29:46 16.7 C 5.68 g/m*3 16.7 C 0 km/h
234 21-04-2009 22:41:46 16.3 C 5.55 g/m*3 16.3 C 0 km/h
235 21-04-2009 22:54:46 16.2 C 5.65 g/m*3 16.2 C 0 km/h
236 21-04-2009 23:06:46 16 C 5.72 g/m*3 16 C 0 km/h
237 21-04-2009 23:18:46 15.5 C 5.95 g/m*3 15.5 C 0 km/h
238 21-04-2009 23:30:46 15.5 C 5.82 g/m*3 15.5 C 0 km/h
239 21-04-2009 23:42:46 15.1 C 5.81 g/m*3 15.1 C 0 km/h
240 21-04-2009 23:54:46 15.1 C 5.81 g/m*3 15.1 C 0 km/h
241 22-04-2009 00:06:46 14.8 C 5.95 g/m*3 14.8 C 0 km/h
242 22-04-2009 00:18:46 14.7 C 6.04 g/m*3 14.7 C 0 km/h
243 22-04-2009 00:30:46 14.6 C 5.88 g/m*3 14.6 C 0 km/h
244 22-04-2009 00:42:47 14.5 C 5.97 g/m*3 14.5 C 0 km/h
245 22-04-2009 00:54:47 14.1 C 5.83 g/m*3 14.1 C 0 km/h
246 22-04-2009 01:06:47 13.9 C 5.99 g/m*3 13.9 C 0 km/h
247 22-04-2009 01:18:47 13.7 C 6.04 g/m*3 13.7 C 0 km/h
248 22-04-2009 01:30:47 13.2 C 6.09 g/m*3 13.2 C 0 km/h
249 22-04-2009 01:42:47 13.1 C 6.28 g/m*3 13.1 C 0 km/h
250 22-04-2009 01:54:47 13 C 6.01 g/m*3 13 C 0 km/h
Sensor: Nr:Datum:Temp:Abs-Feuchte:Windchill:Wind:
Aussen-T/F 251 22-04-2009 02:06:47 13 C 6.12 g/m*3 13 C 0 km/h
252 22-04-2009 02:18:47 12.8 C 6.16 g/m*3 12.8 C 0 km/h
253 22-04-2009 02:30:47 12.6 C 6.2 g/m*3 12.6 C 0 km/h
254 22-04-2009 02:42:47 12.3 C 6.19 g/m*3 12.3 C 0 km/h
255 22-04-2009 02:54:47 12.1 C 6.22 g/m*3 12.1 C 0 km/h
256 22-04-2009 03:06:47 11.8 C 6.31 g/m*3 11.8 C 0 km/h
257 22-04-2009 03:18:47 11.7 C 6.28 g/m*3 11.7 C 0 km/h
258 22-04-2009 03:30:47 11.8 C 6.21 g/m*3 11.8 C 0 km/h
259 22-04-2009 03:42:47 11.7 C 6.17 g/m*3 11.7 C 0 km/h
260 22-04-2009 03:54:47 11.3 C 6.12 g/m*3 11.3 C 0 km/h
261 22-04-2009 04:06:47 11 C 6.01 g/m*3 11 C 0 km/h
262 22-04-2009 04:18:47 10.9 C 5.97 g/m*3 10.9 C 0 km/h
263 22-04-2009 04:30:48 10.8 C 5.93 g/m*3 10.8 C 0 km/h
264 22-04-2009 04:42:48 10.7 C 5.99 g/m*3 10.7 C 0 km/h
265 22-04-2009 04:54:48 10.5 C 6.01 g/m*3 10.5 C 0 km/h
266 22-04-2009 05:06:48 10.7 C 6.09 g/m*3 10.7 C 0 km/h
267 22-04-2009 05:18:48 10.6 C 6.05 g/m*3 10.6 C 0 km/h
268 22-04-2009 05:30:48 10.3 C 6.13 g/m*3 10.3 C 0 km/h
269 22-04-2009 05:42:48 10 C 6.11 g/m*3 10 C 0 km/h
270 22-04-2009 05:54:48 9.9 C 6.26 g/m*3 9.9 C 0 km/h
271 22-04-2009 06:06:48 9.9 C 6.44 g/m*3 9.9 C 0 km/h
272 22-04-2009 06:18:48 9.7 C 6.45 g/m*3 9.7 C 0 km/h
273 22-04-2009 06:30:48 9.6 C 6.5 g/m*3 9.6 C 0 km/h
274 22-04-2009 06:42:48 9.6 C 6.69 g/m*3 9.6 C 0 km/h
275 22-04-2009 06:54:48 9.6 C 6.69 g/m*3 9.6 C 0 km/h
Sensor: Nr:Datum:Temp:Abs-Feuchte:Windchill:Wind:
Aussen-T/F 276 22-04-2009 07:06:48 9.7 C 6.82 g/m*3 9.7 C 0 km/h
277 22-04-2009 07:18:48 9.7 C 6.82 g/m*3 9.7 C 0 km/h
278 22-04-2009 07:30:48 9.8 C 6.87 g/m*3 9.8 C 0 km/h
279 22-04-2009 07:42:48 9.9 C 6.91 g/m*3 9.9 C 0 km/h
280 22-04-2009 07:54:46 10.1 C 7 g/m*3 10.1 C 0 km/h
281 22-04-2009 08:06:46 10.3 C 6.99 g/m*3 10.3 C 0 km/h
282 22-04-2009 08:18:47 10.4 C 6.84 g/m*3 10.4 C 0 km/h
283 22-04-2009 08:30:46 10.5 C 6.89 g/m*3 10.5 C 0 km/h
284 22-04-2009 08:42:46 10.5 C 6.79 g/m*3 10.5 C 0 km/h
285 22-04-2009 08:54:46 10.6 C 6.73 g/m*3 10.6 C 0 km/h
286 22-04-2009 09:06:46 10.7 C 6.68 g/m*3 10.7 C 0 km/h
287 22-04-2009 09:18:46 11 C 6.71 g/m*3 11 C 0 km/h
288 22-04-2009 09:30:45 11.2 C 6.69 g/m*3 11.2 C 0 km/h
289 22-04-2009 09:42:45 10.7 C 6.38 g/m*3 10.7 C 0 km/h
290 22-04-2009 09:54:46 11.2 C 6.49 g/m*3 11.2 C 0 km/h
291 22-04-2009 10:06:45 11.4 C 5.95 g/m*3 11.4 C 0 km/h
292 22-04-2009 10:18:45 11.8 C 5.79 g/m*3 11.8 C 0 km/h
293 22-04-2009 10:30:45 11.8 C 5.89 g/m*3 11.8 C 0 km/h
294 22-04-2009 10:42:45 12.4 C 6.01 g/m*3 12.4 C 0 km/h
295 22-04-2009 10:54:45 12.9 C 5.64 g/m*3 12.9 C 0 km/h
296 22-04-2009 11:06:45 13.1 C 5.59 g/m*3 13.1 C 0 km/h
297 22-04-2009 11:18:44 13.3 C 5.66 g/m*3 13.3 C 0 km/h
298 22-04-2009 11:30:45 14 C 5.67 g/m*3 14 C 0 km/h
299 22-04-2009 11:42:45 14.6 C 5.51 g/m*3 14.6 C 0 km/h
300 22-04-2009 11:54:44 15 C 5.39 g/m*3 15 C 0 km/h
Sensor: Nr:Datum:Temp:Abs-Feuchte:Windchill:Wind:
Aussen-T/F 301 22-04-2009 12:06:44 15.7 C 5.62 g/m*3 15.7 C 0 km/h
302 22-04-2009 12:18:44 16.1 C 5.76 g/m*3 16.1 C 0 km/h
303 22-04-2009 12:30:44 15.7 C 5.62 g/m*3 15.7 C 0 km/h
304 22-04-2009 12:42:44 16 C 5.59 g/m*3 16 C 0 km/h
305 22-04-2009 12:54:43 16.2 C 5.52 g/m*3 16.2 C 0 km/h
306 22-04-2009 13:06:44 17.1 C 5.68 g/m*3 17.1 C 0 km/h
307 22-04-2009 13:18:43 17.5 C 5.96 g/m*3 17.5 C 0 km/h
308 22-04-2009 13:30:43 16.7 C 5.4 g/m*3 16.7 C 0 km/h
309 22-04-2009 13:42:43 17.2 C 5.56 g/m*3 17.2 C 0 km/h
310 22-04-2009 13:54:43 17 C 5.35 g/m*3 17 C 0 km/h
311 22-04-2009 14:06:43 16.6 C 5.51 g/m*3 16.6 C 0 km/h
312 22-04-2009 14:18:43 17.2 C 5.42 g/m*3 17.2 C 0 km/h
313 22-04-2009 14:30:42 17.8 C 5.46 g/m*3 17.8 C 0 km/h
314 22-04-2009 14:42:42 16.8 C 5.15 g/m*3 16.8 C 0 km/h
315 22-04-2009 14:54:43 17.4 C 5.48 g/m*3 17.4 C 0 km/h
316 22-04-2009 15:06:42 16.9 C 5.03 g/m*3 16.9 C 0 km/h
317 22-04-2009 15:18:42 17.5 C 4.92 g/m*3 17.5 C 0 km/h
318 22-04-2009 15:30:42 17.1 C 4.8 g/m*3 17.1 C 0 km/h
319 22-04-2009 15:42:42 16.4 C 5.02 g/m*3 16.4 C 0 km/h
320 22-04-2009 15:54:42 16.7 C 5.12 g/m*3 16.7 C 0 km/h
321 22-04-2009 16:06:42 18 C 4.15 g/m*3 18 C 0 km/h
322 22-04-2009 16:18:41 18 C 3.38 g/m*3 18 C 0 km/h
323 22-04-2009 16:30:42 17.9 C 3.05 g/m*3 17.9 C 0 km/h
324 22-04-2009 16:42:42 18.2 C 3.11 g/m*3 18.2 C 0 km/h
325 22-04-2009 16:54:41 19.1 C 3.28 g/m*3 19.1 C 0 km/h
Sensor: Nr:Datum:Temp:Abs-Feuchte:Windchill:Wind:
Aussen-T/F 326 22-04-2009 17:06:41 18.4 C 3.15 g/m*3 18.4 C 0 km/h
327 22-04-2009 17:18:41 18.5 C 3.16 g/m*3 18.5 C 0 km/h
328 22-04-2009 17:30:41 19.6 C 3.38 g/m*3 19.6 C 0 km/h
329 22-04-2009 17:42:41 19 C 3.26 g/m*3 19 C 0 km/h
330 22-04-2009 17:54:41 19 C 3.26 g/m*3 19 C 0 km/h
331 22-04-2009 18:06:41 17.8 C 3.79 g/m*3 17.8 C 0 km/h
332 22-04-2009 18:18:40 18 C 3.84 g/m*3 18 C 0 km/h
333 22-04-2009 18:30:40 17.8 C 3.95 g/m*3 17.8 C 0 km/h
334 22-04-2009 18:42:40 17.1 C 3.93 g/m*3 17.1 C 0 km/h
335 22-04-2009 18:54:40 17.7 C 3.92 g/m*3 17.7 C 0 km/h
336 22-04-2009 19:06:40 17.4 C 4 g/m*3 17.4 C 0 km/h
337 22-04-2009 19:18:40 16.5 C 4.21 g/m*3 16.5 C 0 km/h
338 22-04-2009 19:30:40 16.1 C 4.11 g/m*3 16.1 C 0 km/h
339 22-04-2009 19:42:40 16.6 C 4.38 g/m*3 16.6 C 0 km/h
340 22-04-2009 19:54:39 16.5 C 4.21 g/m*3 16.5 C 0 km/h
341 22-04-2009 20:06:39 16.4 C 3.91 g/m*3 16.4 C 0 km/h
342 22-04-2009 20:18:40 15.6 C 3.59 g/m*3 15.6 C 0 km/h
343 22-04-2009 20:30:39 14.8 C 3.8 g/m*3 14.8 C 0 km/h
344 22-04-2009 20:42:39 14.2 C 3.66 g/m*3 14.2 C 0 km/h
345 22-04-2009 20:54:39 13.8 C 3.57 g/m*3 13.8 C 0 km/h
346 22-04-2009 21:06:39 13.3 C 3.47 g/m*3 13.3 C 0 km/h
347 22-04-2009 21:18:39 13 C 3.4 g/m*3 13 C 0 km/h
348 22-04-2009 21:30:39 12.7 C 3.67 g/m*3 12.7 C 0 km/h
349 22-04-2009 21:42:39 12.4 C 3.61 g/m*3 12.4 C 0 km/h
350 22-04-2009 21:54:38 12.1 C 3.54 g/m*3 12.1 C 0 km/h
Sensor: Nr:Datum:Temp:Abs-Feuchte:Windchill:Wind:
Aussen-T/F 351 22-04-2009 22:06:39 12 C 3.62 g/m*3 12 C 0 km/h
352 22-04-2009 22:19:39 11.9 C 3.71 g/m*3 11.9 C 0 km/h
353 22-04-2009 22:31:39 11.7 C 3.77 g/m*3 11.7 C 0 km/h
354 22-04-2009 22:43:39 11.4 C 3.8 g/m*3 11.4 C 0 km/h
355 22-04-2009 22:55:39 11.3 C 3.88 g/m*3 11.3 C 0 km/h
356 22-04-2009 23:07:39 11 C 3.9 g/m*3 11 C 0 km/h
357 22-04-2009 23:19:39 10.8 C 4.05 g/m*3 10.8 C 0 km/h
358 22-04-2009 23:31:39 10.2 C 4 g/m*3 10.2 C 0 km/h
359 22-04-2009 23:43:39 10.1 C 4.16 g/m*3 10.1 C 0 km/h
360 22-04-2009 23:55:39 10 C 4.23 g/m*3 10 C 0 km/h

Legende:
   Min
   Max


Maximal/Minimal-Werte vom 20.04.2009 - 22.04.2009

Sensor Min Max Avg
Temp
(Aussen-T/F)
6.8 °C
20-04-2009  06:52:58
27.1 °C
20-04-2009  17:52:56
14.87 °C
Abs-Feuchte
(Aussen-T/F)
3.05 g/m*3
22-04-2009  16:30:42
8.47 g/m*3
20-04-2009  10:28:00
5.73 g/m*3
Windchill
(Aussen-T/F)
6.8 C
20-04-2009  06:52:58
27.1 C
20-04-2009  17:52:56
14.83 C

Die Daten stammen von einer Davis Vantage Pro 2 Wetter-Station und werden unter Linux mit der Software wview2wettercgi und aufbereitet. Alle Angaben erfolgen ohne Gewähr für ihre Vollständigkeit oder Richtigkeit.
Kontakt: Rainer Krienke krienke@uni-koblenz.de . Meine Webseiten an der Uni Koblenz oder privat.
Version: $Revision: 0.78 $